Weather History for KCSG - August, 2013

Change the Weather History Date:

Tuesday, August 20, 2013

  Actual Average Record
Temperature  
Mean Temperature 80 °F 82 °F  
Max Temperature 88 °F 91 °F 102 °F (1983)
Min Temperature 72 °F 72 °F 66 °F (1948)
Degree Days  
Heating Degree Days 0 0  
Month to date heating degree days 0 0  
Since 1 June heating degree days 0 0  
Since 1 July heating degree days 0 0  
Cooling Degree Days 15 17  
Month to date cooling degree days 312 344  
Year to date cooling degree days 1611 1692  
Since 1 June cooling degree days 1248 1334  
Growing Degree Days 30 (Base 50)    
Moisture  
Dew Point 72 °F    
Average Humidity 75    
Maximum Humidity 93    
Minimum Humidity 57    
Precipitation  
Precipitation 0.17 in 0.12 in 0.97 in (2003)
Month to date precipitation 8.57 2.48  
Year to date precipitation 50.31 31.45  
Sea Level Pressure  
Sea Level Pressure 30.08 in    
Wind  
Wind Speed 5 mph (ESE)    
Max Wind Speed 17 mph    
Max Gust Speed 23 mph    
Visibility 9 miles    
Events Rain , Thunderstorm    
T = Trace of Precipitation, MM = Missing Value Source: NWS Daily Summary

Daily Weather History Graph

Daily Weather History Graph

Search for Another Location

Airport or City:

Trip Planner

Search our weather history database for the weather conditions in past years. The results will help you decide how hot, cold, wet, or windy it might be!

Date:

Astronomy

Aug. 20, 2013 Rise Set
Actual Time 7:07 AM EDT 8:18 PM EDT
Civil Twilight 6:41 AM EDT 8:44 PM EDT
Nautical Twilight 6:10 AM EDT 9:14 PM EDT
Astronomical Twilight 5:39 AM EDT 9:46 PM EDT
Moon 7:53 PM EDT (8/20) 6:34 AM EDT (8/20)
Length of Visible Light 14h 02m
Length of Day
13h 11m
Full, 100% of the Moon is Illuminated
Aug 20
Full
Aug 20
Full
Aug 28
Last Quarter
Sep 5
New
Sep 12
First Quarter

Hourly Weather History & Observations

Time (EDT) Temp. Heat Index Dew Point Humidity Pressure Visibility Wind Dir Wind Speed Gust Speed Precip Events Conditions
12:19 AM 75.2 °F - 71.6 °F 89% 30.08 in 10.0 mi ESE 4.6 mph - N/A   Mostly Cloudy
12:44 AM 75.2 °F - 71.6 °F 89% 30.08 in 10.0 mi ESE 5.8 mph - N/A   Partly Cloudy
12:51 AM 75.0 °F - 71.1 °F 87% 30.06 in 10.0 mi ESE 6.9 mph - N/A   Partly Cloudy
1:17 AM 75.2 °F - 71.6 °F 89% 30.09 in 10.0 mi ESE 4.6 mph - N/A   Mostly Cloudy
1:25 AM 75.2 °F - 71.6 °F 89% 30.09 in 10.0 mi East 3.5 mph - N/A   Mostly Cloudy
1:51 AM 75.9 °F - 72.0 °F 87% 30.07 in 10.0 mi ESE 3.5 mph - N/A   Overcast
2:19 AM 75.2 °F - 71.6 °F 89% 30.07 in 10.0 mi East 3.5 mph - N/A   Overcast
2:51 AM 75.0 °F - 72.0 °F 90% 30.04 in 9.0 mi East 3.5 mph - N/A   Mostly Cloudy
3:07 AM 75.2 °F - 71.6 °F 89% 30.05 in 10.0 mi East 3.5 mph - N/A   Mostly Cloudy
3:51 AM 75.9 °F - 72.0 °F 87% 30.04 in 10.0 mi Calm Calm - N/A   Overcast
4:42 AM 75.2 °F - 71.6 °F 89% 30.05 in 10.0 mi East 3.5 mph - N/A   Scattered Clouds
4:51 AM 75.0 °F - 72.0 °F 90% 30.04 in 10.0 mi East 3.5 mph - N/A   Mostly Cloudy
5:03 AM 75.2 °F - 71.6 °F 89% 30.06 in 10.0 mi Calm Calm - N/A   Mostly Cloudy
5:10 AM 75.2 °F - 71.6 °F 89% 30.05 in 10.0 mi Calm Calm - 0.00 in Rain Light Rain
5:25 AM 75.2 °F - 71.6 °F 89% 30.05 in 10.0 mi Calm Calm - 0.00 in   Scattered Clouds
5:51 AM 75.0 °F - 72.0 °F 90% 30.04 in 9.0 mi NE 3.5 mph - 0.00 in   Clear
6:51 AM 75.0 °F - 72.0 °F 90% 30.05 in 9.0 mi East 3.5 mph - N/A   Clear
7:47 AM 75.2 °F - 71.6 °F 89% 30.07 in 9.0 mi ENE 3.5 mph - N/A   Mostly Cloudy
7:51 AM 75.0 °F - 72.0 °F 90% 30.06 in 9.0 mi Calm Calm - N/A   Mostly Cloudy
8:06 AM 75.2 °F - 71.6 °F 89% 30.08 in 9.0 mi Calm Calm - N/A   Scattered Clouds
8:45 AM 77.0 °F - 71.6 °F 83% 30.09 in 10.0 mi East 5.8 mph - N/A   Mostly Cloudy
8:51 AM 77.0 °F - 72.0 °F 84% 30.08 in 10.0 mi East 4.6 mph - N/A   Mostly Cloudy
9:42 AM 77.0 °F - 71.6 °F 83% 30.12 in 10.0 mi East 6.9 mph - N/A   Overcast
9:45 AM 77.0 °F - 71.6 °F 83% 30.12 in 10.0 mi ESE 6.9 mph - N/A   Overcast
9:51 AM 78.1 °F - 72.0 °F 81% 30.11 in 10.0 mi ESE 4.6 mph - N/A   Overcast
10:51 AM 79.0 °F - 72.0 °F 79% 30.13 in 10.0 mi SE 6.9 mph - N/A   Overcast
11:49 AM 80.6 °F 84.6 °F 71.6 °F 74% 30.14 in 10.0 mi ESE 6.9 mph - N/A   Mostly Cloudy
11:51 AM 81.0 °F 85.2 °F 72.0 °F 74% 30.13 in 10.0 mi ESE 9.2 mph - N/A   Mostly Cloudy
12:51 PM 81.0 °F 85.2 °F 72.0 °F 74% 30.13 in 10.0 mi SE 8.1 mph - N/A   Mostly Cloudy
1:51 PM 84.0 °F 89.6 °F 72.0 °F 67% 30.11 in 10.0 mi ESE 5.8 mph - N/A   Mostly Cloudy
2:51 PM 84.9 °F 90.7 °F 72.0 °F 65% 30.08 in 10.0 mi SE 6.9 mph - N/A   Mostly Cloudy
3:51 PM 86.0 °F 90.7 °F 70.0 °F 59% 30.05 in 10.0 mi Variable 4.6 mph - N/A   Scattered Clouds
4:51 PM 84.9 °F 90.1 °F 71.1 °F 63% 30.05 in 10.0 mi ESE 6.9 mph - N/A   Mostly Cloudy
5:48 PM 78.8 °F - 73.4 °F 83% 30.07 in 2.5 mi SSE 11.5 mph - 0.02 in Rain Rain
5:51 PM 79.0 °F - 73.9 °F 84% 30.06 in 2.0 mi South 10.4 mph - 0.03 in Rain Rain
5:57 PM 78.8 °F - 73.4 °F 83% 30.08 in 7.0 mi SE 5.8 mph - 0.01 in Rain Light Rain
6:05 PM 80.6 °F 85.4 °F 73.4 °F 79% 30.08 in 7.0 mi Calm Calm - 0.02 in Rain , Thunderstorm Light Rain
6:20 PM 80.6 °F 85.4 °F 73.4 °F 79% 30.07 in 7.0 mi Calm Calm - 0.02 in Rain Light Rain
6:51 PM 80.1 °F 84.5 °F 73.9 °F 81% 30.07 in 7.0 mi SW 9.2 mph - 0.02 in Thunderstorm Mostly Cloudy
7:12 PM 78.8 °F - 73.4 °F 83% 30.08 in 10.0 mi South 6.9 mph - 0.00 in Rain Light Rain
7:49 PM 78.8 °F - 73.4 °F 83% 30.10 in 7.0 mi South 8.1 mph - 0.00 in Rain , Thunderstorm Light Rain
7:51 PM 78.1 °F - 73.0 °F 84% 30.09 in 7.0 mi South 8.1 mph - 0.00 in Rain , Thunderstorm Light Rain
8:02 PM 75.2 °F - 71.6 °F 89% 30.11 in 10.0 mi South 10.4 mph - 0.01 in Rain , Thunderstorm Light Rain
8:11 PM 75.2 °F - 71.6 °F 89% 30.11 in 9.0 mi South 8.1 mph - 0.01 in Rain , Thunderstorm Light Rain
8:51 PM 75.0 °F - 72.0 °F 90% 30.08 in 10.0 mi SE 3.5 mph - 0.05 in Rain Light Rain
9:51 PM 73.9 °F - 71.1 °F 91% 30.11 in 10.0 mi ESE 3.5 mph - 0.07 in   Scattered Clouds
10:51 PM 73.9 °F - 72.0 °F 93% 30.14 in 10.0 mi East 5.8 mph - 0.00 in   Partly Cloudy
11:51 PM 73.0 °F - 70.0 °F 90% 30.14 in 10.0 mi ENE 5.8 mph - 0.00 in   Clear